Regional Weather Roundup
Issued by NWS State College, PA

Home | Current Version | Previous Version | Graphics & Text | Print | Product List | Glossary Off
Versions: 1 2 3 4 5 6 7 8 9 10 11 12 13 14 15 16 17 18 19 20 21 22 23 24 25 26 27 28 29 30 31 32 33 34 35 36 37 38 39 40 41 42 43 44 45 46 47 48 49 50

000
ASUS41 KCTP 220910
RWRCTP

REGIONAL WEATHER ROUNDUP
NATIONAL WEATHER SERVICE STATE COLLEGE PA
500 AM EDT SUN OCT 22 2017

Note: "fair" indicates few or no clouds below 12,000 feet with no
significant weather and/or obstructions to visibility.

* = STATION THAT DOES NOT REPORT PRECIPITATION /E.G. RAIN...SNOW...ETC/
    THUNDER OR FOG.

PAZ002>004-007>009-013>016-020>023-029>032-221000-
WESTERN PENNSYLVANIA

CITY           SKY/WX    TMP DP  RH WIND       PRES   REMARKS
ERIE           CLEAR     58  48  69 S9        30.26R
MEADVILLE      PTCLDY    51  48  89 CALM      30.29R
FRANKLIN*      PTCLDY    49  45  86 CALM      30.30R
NEW CASTLE     FAIR      48  48 100 CALM      30.29R FOG
BEAVER COUNTY  NOT AVBL
BUTLER*        PTCLDY    47  46  97 CALM      30.29R
PITTSBURGH INT PTCLDY    51  49  92 CALM      30.28R
PITTSBURGH     CLEAR     56  50  80 S6        30.28R HAZE
INDIANA*       CLEAR     52  48  87 CALM      30.33R
LATROBE        CLEAR     48  48 100 CALM      30.30R
WASHINGTON CO* CLEAR     46  45  96 CALM      30.31R
$$

PAZ004>006-010>012-017>019-024>028-033>037-041-042-045-046-049>053-221000-
CENTRAL PENNSYLVANIA

CITY           SKY/WX    TMP DP  RH WIND       PRES   REMARKS
BRADFORD       PTCLDY    45  41  86 CALM      30.33R
DUBOIS         CLOUDY    53  41  63 E5        30.31R
CLEARFIELD     CLOUDY    45  42  89 NE3       30.34R
JOHNSTOWN      CLEAR     57  48  72 S6        30.33R
ALTOONA        CLEAR     52  43  71 CALM      30.34R
STATE COLLEGE  CLOUDY    46  43  89 CALM      30.34R
WILLIAMSPORT   CLEAR     45  43  93 CALM      30.35S
SELINSGROVE    CLEAR     42  42 100 CALM      30.37R
FT INDIANTOWN  CLEAR     44  44 100 CALM      30.36R
CAPITAL CITY   CLEAR     47  43  86 SW5       30.36R
HARRISBURG     PTCLDY    48  46  93 N3        30.36R
YORK           NOT AVBL
$$

PAZ038>040-043-044-047-048-054-055-060>062-067>071-221000-
EASTERN PENNSYLVANIA

CITY           SKY/WX    TMP DP  RH WIND       PRES   REMARKS
SCRANTON       CLEAR     49  41  74 E6        30.37R
MOUNT POCONO   CLEAR     41  39  93 CALM      30.38R
ALLENTOWN      CLEAR     43  39  86 NW3       30.37R
QUAKERTOWN*    SUNNY     41  41 100 CALM      30.37S
READING        CLEAR     44  44 100 CALM      30.36R
LANCASTER      PTCLDY    47  46  97 CALM      30.36R FOG
COATESVILLE    MOSUNNY   48  45  87 CALM      30.37S
POTTSTOWN      CLEAR     42  42 100 CALM      30.38R
BLUE BELL      CLEAR     41  41 100 CALM      30.38S
DOYLESTOWN     CLEAR     45  42  89 CALM      30.36R
WILLOW GROVE   NOT AVBL
NORTH PHILA    CLEAR     49  45  86 CALM      30.38S
PHILADELPHIA   PTCLDY    52  46  80 CALM      30.36S
$$




USA.gov is the U.S. government's official web portal to all federal, state and local government web resources and services.